Pontiac, MI

9:59 PM EST on December 13, 2017 (GMT -0500)
Oakland County International

Weather History for KPTK - February, 2014

Change the Weather History Date:

Wednesday, February 5, 2014

  Actual Average Record
Temperature  
Mean Temperature 14 °F -  
Max Temperature 23 °F 31 °F 46 °F (2005)
Min Temperature 3 °F 17 °F -6 °F (2007)
Degree Days  
Heating Degree Days 51    
Moisture  
Dew Point 12 °F    
Average Humidity 81    
Maximum Humidity 87    
Minimum Humidity 62    
Precipitation  
Precipitation 0.01 in - - ()
Snow  
Snow 0.00 in - - ()
Snow Depth 17.00 in    
Sea Level Pressure  
Sea Level Pressure 30.05 in    
Wind  
Wind Speed 12 mph (NNE)    
Max Wind Speed 20 mph    
Max Gust Speed 30 mph    
Visibility 3 miles    
Events Fog , Snow    
Averages and records for this station are not official NWS values.
T = Trace of Precipitation, MM = Missing Value Source: NWS Daily Summary

Daily Weather History Graph

Daily Weather History Graph

Search for Another Location

Airport or City:

Trip Planner

Search our weather history database for the weather conditions in past years. The results will help you decide how hot, cold, wet, or windy it might be!

Date:

Astronomy

Feb. 05, 2014 Rise Set
Actual Time 7:43 AM EST 5:52 PM EST
Civil Twilight 7:13 AM EST 6:22 PM EST
Nautical Twilight 6:40 AM EST 6:55 PM EST
Astronomical Twilight 6:07 AM EST 7:28 PM EST
Moon 10:48 AM EST (2/5) No Moon Set
Length of Visible Light 11h 08m
Length of Day
10h 08m
Waxing Crescent, 39% of the Moon is Illuminated
Feb 5
Waxing Crescent
Feb 6
First Quarter
Feb 14
Full
Feb 22
Last Quarter
Mar 1
New

Hourly Weather History & Observations

Time (EST) Temp. Windchill Dew Point Humidity Pressure Visibility Wind Dir Wind Speed Gust Speed Precip Events Conditions
12:15 AM 17.6 °F 5.7 °F 12.2 °F 79% 30.10 in 3.0 mi ENE 10.4 mph - 0.00 in Snow Light Snow
12:53 AM 18.0 °F 6.1 °F 12.9 °F 81% 30.14 in 2.5 mi NE 10.4 mph - 0.00 in Snow Light Snow
1:13 AM 17.6 °F 6.4 °F 14.0 °F 86% 30.07 in 1.8 mi NE 9.2 mph - 0.00 in Snow Light Snow
1:21 AM 17.6 °F 7.3 °F 14.0 °F 86% 30.06 in 1.8 mi NE 8.1 mph - 0.00 in Snow Light Snow
1:53 AM 18.0 °F 4.8 °F 14.0 °F 84% 30.09 in 1.8 mi NE 12.7 mph - 0.00 in Snow Light Snow
1:57 AM 17.6 °F 5.7 °F 14.0 °F 86% 30.04 in 2.0 mi NNE 10.4 mph - 0.00 in Snow Light Snow
2:53 AM 18.0 °F 5.4 °F 12.9 °F 81% 30.09 in 3.0 mi NNE 11.5 mph - 0.00 in Snow Light Snow
3:08 AM 17.6 °F 5.0 °F 14.0 °F 86% 30.04 in 2.5 mi NNE 11.5 mph - 0.00 in Snow Light Snow
3:27 AM 17.6 °F 5.7 °F 14.0 °F 86% 30.02 in 1.8 mi NE 10.4 mph - 0.00 in Snow Light Snow
3:53 AM 18.0 °F 4.8 °F 14.0 °F 84% 30.05 in 1.2 mi NNE 12.7 mph - 0.00 in Snow Light Snow
4:24 AM 17.6 °F 3.2 °F 14.0 °F 86% 29.96 in 2.0 mi NNE 15.0 mph - 0.00 in Snow Light Snow
4:33 AM 17.6 °F 3.7 °F 14.0 °F 86% 29.94 in 1.2 mi NNE 13.8 mph 21.9 mph 0.00 in Snow Light Snow
4:48 AM 17.6 °F 5.7 °F 14.0 °F 86% 29.96 in 2.0 mi NE 10.4 mph - 0.00 in Snow Light Snow
4:53 AM 18.0 °F 5.4 °F 14.0 °F 84% 30.00 in 2.5 mi NE 11.5 mph - 0.00 in Snow Light Snow
5:00 AM 17.6 °F 3.7 °F 14.0 °F 86% 29.95 in 4.0 mi NE 13.8 mph 20.7 mph 0.00 in Snow Light Snow
5:53 AM 19.0 °F 4.0 °F 14.0 °F 81% 29.93 in 5.0 mi NNE 17.3 mph 23.0 mph 0.00 in Snow Light Snow
6:13 AM 19.4 °F 5.0 °F 14.0 °F 80% 29.87 in 2.0 mi NNE 16.1 mph 27.6 mph 0.01 in Snow Light Snow
6:20 AM 19.4 °F 5.0 °F 14.0 °F 80% 29.88 in 1.2 mi NNE 16.1 mph - 0.01 in Snow Light Snow
6:53 AM 19.0 °F 4.5 °F 15.1 °F 85% 29.96 in 1.5 mi NNE 16.1 mph - 0.01 in Snow Light Snow
7:17 AM 19.4 °F 5.5 °F 15.8 °F 86% 29.91 in 0.8 mi North 15.0 mph - 0.00 in Snow Light Snow
7:39 AM 19.4 °F 6.6 °F 15.8 °F 86% 29.90 in 0.8 mi North 12.7 mph - 0.00 in Snow Light Snow
7:53 AM 19.0 °F 5.0 °F 15.1 °F 85% 29.94 in 0.8 mi NNE 15.0 mph - 0.00 in Snow Light Snow
8:12 AM 19.4 °F 5.5 °F 15.8 °F 86% 29.89 in 1.0 mi NNE 15.0 mph 24.2 mph 0.00 in Snow Light Snow
8:26 AM 19.4 °F 5.5 °F 15.8 °F 86% 29.89 in 0.5 mi NNE 15.0 mph - 0.00 in Fog , Snow Snow
8:33 AM 19.4 °F 5.0 °F 15.8 °F 86% 29.89 in 0.2 mi North 16.1 mph 21.9 mph 0.00 in Fog , Snow Heavy Snow
8:53 AM 19.9 °F 5.7 °F 16.0 °F 85% 29.93 in 0.2 mi North 16.1 mph 21.9 mph 0.00 in Fog , Snow Heavy Snow
9:06 AM 19.4 °F 5.5 °F 15.8 °F 86% 29.88 in 0.5 mi North 15.0 mph 21.9 mph 0.00 in Fog , Snow Snow
9:53 AM 19.9 °F 5.7 °F 16.0 °F 85% 29.94 in 0.5 mi North 16.1 mph 23.0 mph 0.00 in Fog , Snow Snow
10:22 AM 21.2 °F 7.8 °F 17.6 °F 86% 29.92 in 0.5 mi North 15.0 mph 24.2 mph 0.00 in Fog , Snow Snow
10:53 AM 21.0 °F 7.6 °F 17.1 °F 85% 29.99 in 0.8 mi North 15.0 mph - 0.00 in Snow Light Snow
11:53 AM 21.0 °F 7.1 °F 17.1 °F 85% 30.01 in 0.5 mi North 16.1 mph 20.7 mph 0.00 in Fog , Snow Snow
12:53 PM 23.0 °F 9.2 °F 17.1 °F 78% 30.03 in 1.0 mi North 17.3 mph 27.6 mph 0.00 in Snow Light Snow
1:53 PM 21.0 °F 8.1 °F 15.1 °F 78% 30.05 in 1.0 mi North 13.8 mph 25.3 mph 0.00 in Snow Light Snow
2:07 PM 21.2 °F 6.0 °F 14.0 °F 74% 30.02 in 2.0 mi North 19.6 mph 29.9 mph 0.00 in Snow Light Snow
2:20 PM 21.2 °F 7.3 °F 12.2 °F 68% 30.03 in 2.0 mi North 16.1 mph 28.8 mph 0.00 in Snow Light Snow
2:29 PM 21.2 °F 7.8 °F 14.0 °F 74% 30.04 in 1.5 mi North 15.0 mph 26.5 mph 0.00 in Snow Light Snow
2:48 PM 21.2 °F 7.8 °F 12.2 °F 68% 30.05 in 3.0 mi North 15.0 mph - 0.00 in Snow Light Snow
2:53 PM 21.0 °F 8.6 °F 12.9 °F 71% 30.11 in 3.0 mi NNW 12.7 mph 21.9 mph 0.00 in Snow Light Snow
3:53 PM 19.0 °F 5.0 °F 10.0 °F 68% 30.15 in 7.0 mi North 15.0 mph 24.2 mph 0.00 in   Mostly Cloudy
4:53 PM 18.0 °F 6.1 °F 9.0 °F 68% 30.18 in 10.0 mi North 10.4 mph 21.9 mph N/A   Mostly Cloudy
5:53 PM 16.0 °F 1.1 °F 7.0 °F 68% 30.24 in 9.0 mi NNW 15.0 mph 23.0 mph N/A   Mostly Cloudy
6:10 PM 15.8 °F 2.1 °F 5.0 °F 62% 30.20 in 10.0 mi NNW 12.7 mph 21.9 mph N/A   Scattered Clouds
6:53 PM 12.9 °F 3.8 °F 3.0 °F 65% 30.28 in 10.0 mi NNW 5.8 mph - N/A   Scattered Clouds
7:53 PM 8.1 °F - 1.9 °F 76% 30.30 in 10.0 mi Calm Calm - N/A   Scattered Clouds
8:53 PM 5.0 °F -2.1 °F 1.9 °F 87% 30.32 in 10.0 mi WNW 3.5 mph - N/A   Scattered Clouds
9:53 PM 8.1 °F - 3.9 °F 83% 30.34 in 10.0 mi Calm Calm - N/A   Overcast
10:53 PM 5.0 °F - 1.9 °F 87% 30.36 in 10.0 mi Calm Calm - N/A   Partly Cloudy
11:53 PM 3.9 °F - -2.0 °F 76% 30.36 in 9.0 mi Calm Calm - N/A   Mostly Cloudy